Regional Weather Roundup
Issued by NWS

Home | Current Version | Previous Version | Text Only | Print | Product List | Glossary On
Versions: 1 2 3 4 5 6 7 8 9 10 11 12 13 14 15 16 17 18 19 20 21 22 23 24 25 26 27 28 29 30 31 32 33 34 35 36 37 38 39 40 41 42 43 44 45 46 47 48 49 50
000
ASUS43 KDTX 250001
RWRMI
MICHIGAN HOURLY REGIONAL WEATHER ROUNDUP
NATIONAL WEATHER SERVICE DETROIT/PONTIAC MI
800 PM EDT THU APR 24 2014

NOTE: "FAIR" INDICATES FEW OR NO CLOUDS BELOW 12,000 FEET WITH NO
SIGNIFICANT WEATHER AND/OR OBSTRUCTION TO VISIBILITY.

MIZ047>049-052>055-059>063-066>070-074>076-081>083-250100-
SOUTHEAST LOWER MICHIGAN

CITY           SKY/WX    TMP DP  RH WIND       PRES   REMARKS
ADRIAN         CLOUDY    46  26  45 E17       29.94F
6HR MIN TEMP:  46; 6HR MAX TEMP:  55; 6HR PCP: TRACE;

ALMA           CLOUDY    53  18  25 E12G20    29.91S
ANN ARBOR      CLOUDY    49  16  26 SE8       29.95F
BAD AXE        MOCLDY    44  16  31 E9        30.00F
6HR MIN TEMP:  44; 6HR MAX TEMP:  52;

CARO           CLOUDY    51  20  29 E12       29.97F
DETROIT CITY   CLOUDY    51  19  28 SE9       30.00F
6HR MIN TEMP:  51; 6HR MAX TEMP:  57;

DETROIT        CLOUDY    51  16  24 E9G20     29.97F
6HR MIN TEMP:  51; 6HR MAX TEMP:  55;

FLINT          CLOUDY    53  20  27 SE15      29.94F
6HR MIN TEMP:  53; 6HR MAX TEMP:  59;

GROSSE ILE     CLOUDY    52  14  22 E12       29.96F
HILLSDALE      CLOUDY    48  22  36 E18       29.88F
HOWELL         CLOUDY    49  16  26 SE15      29.95S

CITY           SKY/WX    TMP DP  RH WIND       PRES   REMARKS
JACKSON        CLOUDY    48  19  31 E15G28    29.90F
6HR MIN TEMP:  48; 6HR MAX TEMP:  56; 6HR PCP: TRACE;

LAMBERTVILLE   CLOUDY    46  30  53 E9G18     29.96S
LANSING        CLOUDY    51  18  27 SE22G28   29.91F
6HR MIN TEMP:  51; 6HR MAX TEMP:  58; 6HR PCP: TRACE;

LAPEER         MOCLDY    50  19  29 SE8       29.98F
MASON          CLOUDY    49  18  29 E8        29.92S
MONROE         LGT RAIN  46  30  53 E9        29.95F
MT. CLEMENS    CLOUDY    48  23  37 SE10      29.99F
6HR MIN TEMP:  48; 6HR MAX TEMP:  55;

PONTIAC        CLOUDY    50  13  22 SE14G22   29.96F
6HR MIN TEMP:  50; 6HR MAX TEMP:  56;

PORT HOPE        N/A     40  29  64 E9        30.01F WCI  34
6HR MIN TEMP:  40; 6HR MAX TEMP:  42;

PORT HURON     CLOUDY    45  23  42 N5        30.02F
TRI CITIES     CLOUDY    53  24  32 E18       29.94F
6HR MIN TEMP:  53; 6HR MAX TEMP:  58;

TROY           CLOUDY    50  17  26 E7        30.00F
SAGINAW HB     CLOUDY    52  23  32 E16       29.95F
YPSILANTI      LGT RAIN  53  15  22 E18       29.94F
6HR MIN TEMP:  53; 6HR MAX TEMP:  57; 6HR PCP: TRACE;

$$
MIZ043>046-050>051-056>058-064>065-071>073-077>080-250100-
SOUTHWEST LOWER MICHIGAN

CITY           SKY/WX    TMP DP  RH WIND       PRES   REMARKS
BATTLE CREEK   CLOUDY    51  21  30 SE12G26   29.86F
6HR MIN TEMP:  51; 6HR MAX TEMP:  58; 6HR PCP: TRACE;

BENTON HARBOR  CLOUDY    56  25  30 SE17G33   29.77F
6HR MIN TEMP:  56; 6HR MAX TEMP:  59;

BIG RAPIDS     MOCLDY    53  21  28 E16G25    29.86F
6HR MIN TEMP:  52; 6HR MAX TEMP:  55;

COLDWATER      CLOUDY    50  24  35 SE17G25   29.88S
6HR MIN TEMP:  50; 6HR MAX TEMP:  57;

FREMONT        FAIR      54  19  25 SE13G23   29.83F
HOLLAND        CLOUDY    56  24  29 E17G25    29.81F
6HR MIN TEMP:  56; 6HR MAX TEMP:  59;

GRAND RAPIDS   CLOUDY    53  22  29 SE21G26   29.85F
6HR MIN TEMP:  53; 6HR MAX TEMP:  59; 6HR PCP: TRACE;

IONIA          FAIR      51  19  28 SE21G28   29.86F
KALAMAZOO      CLOUDY    54  23  30 SE13G22   29.84F
6HR MIN TEMP:  54; 6HR MAX TEMP:  59; 6HR PCP: TRACE;

LUDINGTON      CLOUDY    57  22  26 SE16G22   29.81F
MARSHALL       CLOUDY    49  20  31 E12       29.87F
MOUNT PLEASANT CLOUDY    51  27  39 E15       29.90F
MUSKEGON       MOCLDY    56  25  30 E13G23    29.82F
6HR MIN TEMP:  56; 6HR MAX TEMP:  61;

SOUTH HAVEN    CLOUDY    56  20  24 SE13G22   29.79S
$$
MIZ016>042-250100-
NORTHERN LOWER MICHIGAN

CITY           SKY/WX    TMP DP  RH WIND       PRES   REMARKS
ALPENA         CLOUDY    40  25  55 E10       30.03F WCI  33
6HR MIN TEMP:  40; 6HR MAX TEMP:  52;

BEAVER ISLAND  RAIN      44  31  62 E13G20    29.95F
6HR MIN TEMP:  44; 6HR MAX TEMP:  48;

BELLAIRE       CLOUDY    51  16  25 E8G18     29.92F
6HR MIN TEMP:  50; 6HR MAX TEMP:  56;

CADILLAC       CLOUDY    49  24  38 E15G26    29.88S
CHARLEVOIX     CLOUDY    47  29  49 E14       29.97F
6HR MIN TEMP:  47; 6HR MAX TEMP:  55;

FRANKFORT      CLOUDY    47  32  55 E7        29.83F
GAYLORD        CLOUDY    46  14  27 E7        29.95F
6HR MIN TEMP:  46; 6HR MAX TEMP:  53; 6HR PCP: TRACE;

GRAYLING       CLOUDY    48  17  29 E17       29.96S
6HR MIN TEMP:  48; 6HR MAX TEMP:  55;

HARBOR SPRINGS CLOUDY    48  20  33 E8G16     29.96S
HOUGHTON LAKE  CLOUDY    46  19  34 E16G25    29.94F
6HR MIN TEMP:  46; 6HR MAX TEMP:  53;

MANISTEE       CLOUDY    54  21  28 E17       29.82F
OSCODA         CLOUDY    43  24  47 E8        30.02F
PELLSTON       CLOUDY    48  17  29 SE13G23   29.98F
6HR MIN TEMP:  48; 6HR MAX TEMP:  54;

ROGERS CITY    CLOUDY    45  22  40 SE7       30.03F
TRAVERSE CITY  CLOUDY    51  21  30 E12       29.88F
6HR MIN TEMP:  47; 6HR MAX TEMP:  56; 6HR PCP: TRACE;

$$
MIZ007>008-015-250100-
EASTERN UPPER MICHIGAN

CITY           SKY/WX    TMP DP  RH WIND       PRES   REMARKS
KINROSS        CLOUDY    45  19  36 E9        30.00F
6HR MIN TEMP:  45; 6HR MAX TEMP:  52;

MACKINAC ISLAN LGT RAIN  43  28  54 E9G16     30.00F
6HR MIN TEMP:  37; 6HR MAX TEMP:  46;

NEWBERRY       LGT SNOW  38  33  82 E18G24    30.00R WCI  28
S. S. MARIE    CLOUDY    44  19  36 SE8       30.01F
6HR MIN TEMP:  44; 6HR MAX TEMP:  51;

MUNISING         N/A     41  34  76 CALM      29.94F
6HR MIN TEMP:  40; 6HR MAX TEMP:  50; 6HR PCP:  0.05;

$$
MIZ004>006-011>014-085-250100-
CENTRAL UPPER MICHIGAN

CITY           SKY/WX    TMP DP  RH WIND       PRES   REMARKS
MANISTIQUE     DRIZZLE   39  33  78 E6        29.95F WCI  35
ESCANABA       CLOUDY    37  34  87 E13G18    29.90F WCI  29
6HR MIN TEMP:  37; 6HR MAX TEMP:  43; 6HR PCP:  0.06;

MENOMINEE      CLOUDY    37  34  87 E14       29.83F WCI  29
6HR MIN TEMP:  36; 6HR MAX TEMP:  37; 6HR PCP:  0.17;

SAWYER-GWINN   LGT SNOW  34  32  93 SE8       29.91F WCI  27
$$
MIZ001>003-009>011-084-250100-
WESTERN UPPER MICHIGAN

CITY           SKY/WX    TMP DP  RH WIND       PRES   REMARKS
IRON MOUNTAIN  LGT SNOW  34  32  92 E9        29.84F FOG     WCI  27
6HR MIN TEMP:  33; 6HR MAX TEMP:  40; 6HR PCP:  0.28;

HOUGHTON       SNOW      33  30  88 E16G23    29.87F VSB 1/2 WCI  23
6HR MIN TEMP:  33; 6HR MAX TEMP:  40; 6HR PCP: TRACE;

COPPER HARBOR    N/A     36  33  89 S7G21     29.93F WCI  30
6HR MIN TEMP:  36; 6HR MAX TEMP:  44; 6HR PCP:  0.09;

$$

ABBREVIATIONS USED IN REMARKS
   TC - TEMPERATURE IN CELSIUS
  WCI - WIND CHILL INDEX
   HX - HEAT INDEX
  VSB - VISIBILITY




USA.gov is the U.S. government's official web portal to all federal, state and local government web resources and services.